Los Angeles, CA

7:21 AM PDT on March 29, 2017 (GMT -0700)
Los Angeles International

Weather History for KLAX - July, 2013

Change the Weather History Date:

Sunday, July 28, 2013

  Actual Average Record
Temperature  
Mean Temperature 67 °F 69 °F  
Max Temperature 71 °F 74 °F 85 °F (1947)
Min Temperature 63 °F 64 °F 58 °F (1965)
Degree Days  
Heating Degree Days 0 0  
Month to date heating degree days 0 0  
Since 1 June heating degree days 0 25  
Since 1 July heating degree days 0 0  
Cooling Degree Days 2 4  
Month to date cooling degree days 125 104  
Year to date cooling degree days 299 186  
Since 1 June cooling degree days 218 146  
Growing Degree Days 17 (Base 50)    
Moisture  
Dew Point 59 °F    
Average Humidity 82    
Maximum Humidity 93    
Minimum Humidity 70    
Precipitation  
Precipitation 0.00 in 0.00 in 0.04 in (1968)
Month to date precipitation 0.03 0.03  
Year to date precipitation 2.64 8.84  
Since 1 July precipitation 0.03  
Sea Level Pressure  
Sea Level Pressure 29.92 in    
Wind  
Wind Speed 7 mph (WSW)    
Max Wind Speed 15 mph    
Max Gust Speed 21 mph    
Visibility 9 miles    
Events      
T = Trace of Precipitation, MM = Missing Value Source: NWS Daily Summary

Daily Weather History Graph

Daily Weather History Graph

Search for Another Location

Airport or City:

Trip Planner

Search our weather history database for the weather conditions in past years. The results will help you decide how hot, cold, wet, or windy it might be!

Date:

Astronomy

Jul. 28, 2013 Rise Set
Actual Time 6:02 AM PDT 7:57 PM PDT
Civil Twilight 5:34 AM PDT 8:24 PM PDT
Nautical Twilight 5:01 AM PDT 8:58 PM PDT
Astronomical Twilight 4:25 AM PDT 9:33 PM PDT
Moon 11:44 PM PDT (7/28) 12:27 PM PDT (7/28)
Length of Visible Light 14h 49m
Length of Day
13h 54m
Waning Gibbous, 60% of the Moon is Illuminated
Jul 28
Waning Gibbous
Jul 29
Last Quarter
Aug 6
New
Aug 14
First Quarter
Aug 20
Full

Hourly Weather History & Observations

Time (PDT) Temp. Dew Point Humidity Pressure Visibility Wind Dir Wind Speed Gust Speed Precip Events Conditions
12:53 AM 63.0 °F 59.0 °F 87% 29.92 in 10.0 mi WSW 3.5 mph - N/A   Overcast
1:53 AM 63.0 °F 59.0 °F 87% 29.91 in 8.0 mi West 5.8 mph - N/A   Overcast
2:53 AM 63.0 °F 60.1 °F 90% 29.89 in 8.0 mi Calm Calm - N/A   Overcast
3:53 AM 63.0 °F 60.1 °F 90% 29.89 in 8.0 mi West 3.5 mph - N/A   Overcast
4:53 AM 63.0 °F 60.1 °F 90% 29.89 in 6.0 mi Calm Calm - N/A   Overcast
5:53 AM 63.0 °F 60.1 °F 90% 29.90 in 8.0 mi West 4.6 mph - N/A   Overcast
6:53 AM 64.0 °F 60.1 °F 87% 29.92 in 6.0 mi WSW 5.8 mph - N/A   Overcast
7:53 AM 63.0 °F 61.0 °F 93% 29.93 in 4.0 mi West 5.8 mph - N/A   Overcast
8:53 AM 63.0 °F 61.0 °F 93% 29.94 in 6.0 mi West 4.6 mph - N/A   Overcast
9:53 AM 64.0 °F 60.1 °F 87% 29.94 in 8.0 mi WSW 5.8 mph - N/A   Overcast
10:31 AM 64.4 °F 60.8 °F 88% 29.94 in 8.0 mi West 4.6 mph - N/A   Overcast
10:53 AM 66.0 °F 61.0 °F 84% 29.94 in 8.0 mi West 5.8 mph - N/A   Overcast
11:33 AM 66.2 °F 60.8 °F 83% 29.94 in 9.0 mi West 9.2 mph - N/A   Overcast
11:53 AM 69.1 °F 60.1 °F 73% 29.94 in 10.0 mi WSW 9.2 mph - N/A   Overcast
12:53 PM 70.0 °F 59.0 °F 68% 29.93 in 10.0 mi West 10.4 mph - N/A   Mostly Cloudy
1:53 PM 70.0 °F 59.0 °F 68% 29.91 in 10.0 mi West 12.7 mph - N/A   Mostly Cloudy
2:53 PM 68.0 °F 59.0 °F 73% 29.91 in 10.0 mi WSW 12.7 mph - N/A   Overcast
3:53 PM 68.0 °F 59.0 °F 73% 29.90 in 10.0 mi WSW 12.7 mph - N/A   Mostly Cloudy
4:53 PM 66.9 °F 59.0 °F 76% 29.90 in 10.0 mi West 12.7 mph - N/A   Overcast
5:53 PM 66.0 °F 59.0 °F 78% 29.89 in 10.0 mi West 9.2 mph - N/A   Overcast
6:53 PM 64.9 °F 57.9 °F 78% 29.90 in 10.0 mi West 8.1 mph - N/A   Mostly Cloudy
7:53 PM 63.0 °F 57.9 °F 84% 29.90 in 10.0 mi West 6.9 mph - N/A   Mostly Cloudy
8:53 PM 64.0 °F 59.0 °F 84% 29.91 in 10.0 mi West 9.2 mph - N/A   Overcast
9:53 PM 64.0 °F 57.9 °F 80% 29.93 in 10.0 mi WSW 8.1 mph - N/A   Overcast
10:53 PM 64.0 °F 57.9 °F 80% 29.93 in 10.0 mi WSW 8.1 mph - N/A   Overcast
11:53 PM 64.0 °F 57.9 °F 80% 29.93 in 10.0 mi SW 5.8 mph - N/A   Overcast